Ord, NE

1:40 AM CST on February 23, 2018 (GMT -0600)
Sharp

Weather History for KODX - June, 2014

Change the Weather History Date:

Monday, June 9, 2014

  Actual Average Record
Temperature  
Mean Temperature 56 °F 67 °F  
Max Temperature 60 °F 79 °F 100 °F (2006)
Min Temperature 51 °F 56 °F 48 °F (2003)
Degree Days  
Heating Degree Days 9 2  
Month to date heating degree days 21 21  
Since 1 June heating degree days 21  
Since 1 July heating degree days 6591  
Cooling Degree Days 0 4  
Month to date cooling degree days 21 30  
Year to date cooling degree days 90 71  
Since 1 June cooling degree days 21 30  
Growing Degree Days 6 (Base 50)    
Moisture  
Dew Point 52 °F    
Average Humidity 90    
Maximum Humidity 100    
Minimum Humidity 80    
Precipitation  
Precipitation 2.01 in 0.17 in 2.01 in (2014)
Month to date precipitation 4.48 1.56  
Year to date precipitation 6.70 10.22  
Sea Level Pressure  
Sea Level Pressure 29.96 in    
Wind  
Wind Speed 12 mph (NNE)    
Max Wind Speed 23 mph    
Max Gust Speed 32 mph    
Visibility 7 miles    
Events Rain    
T = Trace of Precipitation, MM = Missing Value Source: NWS Daily Summary

Daily Weather History Graph

Daily Weather History Graph

Search for Another Location

Airport or City:

Trip Planner

Search our weather history database for the weather conditions in past years. The results will help you decide how hot, cold, wet, or windy it might be!

Date:

Astronomy

Jun. 09, 2014 Rise Set
Actual Time 6:01 AM CDT 9:09 PM CDT
Civil Twilight 5:27 AM CDT 9:42 PM CDT
Nautical Twilight 4:44 AM CDT 10:26 PM CDT
Astronomical Twilight 3:52 AM CDT 11:18 PM CDT
Moon 5:29 PM CDT (6/9) 3:32 AM CDT (6/9)
Length of Visible Light 16h 15m
Length of Day
15h 07m
Waxing Gibbous, 85% of the Moon is Illuminated
Jun 9
Waxing Gibbous
Jun 12
Full
Jun 19
Last Quarter
Jun 27
New
Jul 5
First Quarter

Hourly Weather History & Observations

Time (CDT) Temp. Dew Point Humidity Pressure Visibility Wind Dir Wind Speed Gust Speed Precip Events Conditions
12:53 AM 53.1 °F 50.0 °F 89% 29.92 in 3.0 mi NNE 10.4 mph 16.1 mph 0.07 in Rain Heavy Rain
1:09 AM 52.0 °F 50.0 °F 93% 29.91 in 4.0 mi NNE 13.8 mph - 0.05 in Rain Rain
1:53 AM 52.0 °F 50.0 °F 93% 29.91 in 10.0 mi NNE 8.1 mph - 0.08 in Rain Light Rain
2:11 AM 52.0 °F 50.0 °F 93% 29.90 in 4.0 mi NE 11.5 mph - 0.05 in Rain Heavy Rain
2:53 AM 52.0 °F 51.1 °F 97% 29.89 in 3.0 mi NE 15.0 mph 23.0 mph 0.21 in Rain Light Rain
3:03 AM 53.1 °F 51.1 °F 93% 29.90 in 6.0 mi NNE 15.0 mph 24.2 mph 0.01 in Rain Rain
3:25 AM 52.0 °F 51.1 °F 97% 29.90 in 2.5 mi NNE 11.5 mph 21.9 mph 0.11 in Rain Rain
3:35 AM 52.0 °F 51.1 °F 97% 29.90 in 3.0 mi NNE 12.7 mph - 0.15 in Rain Heavy Rain
3:53 AM 52.0 °F 50.0 °F 93% 29.90 in 5.0 mi NNE 16.1 mph 26.5 mph 0.18 in Rain Rain
4:27 AM 52.0 °F 50.0 °F 93% 29.91 in 3.0 mi NNE 12.7 mph 24.2 mph 0.17 in Rain Heavy Rain
4:33 AM 52.0 °F 50.0 °F 93% 29.92 in 2.0 mi NNE 16.1 mph 25.3 mph 0.23 in Rain Heavy Rain
4:44 AM 52.0 °F 50.0 °F 93% 29.93 in 1.8 mi NNE 10.4 mph 21.9 mph 0.36 in Rain Heavy Rain
4:53 AM 52.0 °F 50.0 °F 93% 29.93 in 2.0 mi North 17.3 mph 28.8 mph 0.47 in Rain Heavy Rain
5:18 AM 52.0 °F 50.0 °F 93% 29.93 in 4.0 mi North 18.4 mph 25.3 mph 0.15 in Rain Heavy Rain
5:30 AM 52.0 °F 50.0 °F 93% 29.92 in 2.5 mi North 20.7 mph 28.8 mph 0.20 in Rain Heavy Rain
5:53 AM 52.0 °F 50.0 °F 93% 29.91 in 2.5 mi NNE 23.0 mph 32.2 mph 0.38 in Rain Heavy Rain
6:00 AM 52.0 °F 50.0 °F 93% 29.92 in 3.0 mi NNE 21.9 mph 31.1 mph 0.05 in Rain Heavy Rain
6:07 AM 52.0 °F 50.0 °F 93% 29.93 in 2.5 mi North 16.1 mph 31.1 mph 0.10 in Rain Heavy Rain
6:17 AM 52.0 °F 50.0 °F 93% 29.95 in 3.0 mi North 11.5 mph 24.2 mph 0.17 in Rain Heavy Rain
6:22 AM 52.0 °F 50.0 °F 93% 29.95 in 2.5 mi North 13.8 mph 19.6 mph 0.22 in Rain Heavy Rain
6:53 AM 52.0 °F 50.0 °F 93% 29.97 in 2.0 mi NNE 12.7 mph 26.5 mph 0.49 in Rain Rain
7:08 AM 52.0 °F 50.0 °F 93% 29.97 in 1.5 mi North 15.0 mph - 0.07 in Rain Heavy Rain
7:26 AM 52.0 °F 50.0 °F 93% 29.98 in 2.5 mi North 13.8 mph 21.9 mph 0.12 in Rain Rain
7:39 AM 52.0 °F 50.0 °F 93% 29.98 in 3.0 mi NNE 15.0 mph - 0.15 in Rain Rain
7:53 AM 52.0 °F 50.0 °F 93% 29.99 in 5.0 mi North 12.7 mph - 0.17 in Rain Light Rain
8:02 AM 52.0 °F 50.0 °F 93% 29.99 in 8.0 mi North 12.7 mph 20.7 mph 0.00 in Rain Light Rain
8:12 AM 52.0 °F 50.0 °F 93% 29.99 in 5.0 mi North 12.7 mph 19.6 mph 0.01 in Rain Rain
8:53 AM 52.0 °F 50.0 °F 93% 30.00 in 10.0 mi NNE 11.5 mph - 0.03 in Rain Light Rain
9:11 AM 53.1 °F 50.0 °F 89% 30.00 in 10.0 mi NNE 12.7 mph - 0.00 in   Overcast
9:53 AM 53.6 °F 51.8 °F 94% 29.99 in 10.0 mi NNE 12.7 mph - N/A   Overcast
10:53 AM 55.0 °F 52.0 °F 89% 30.00 in 10.0 mi NNE 11.5 mph - 0.00 in   Overcast
11:41 AM 55.9 °F 52.0 °F 87% 29.99 in 10.0 mi North 13.8 mph - N/A   Overcast
11:53 AM 55.9 °F 53.1 °F 90% 30.00 in 10.0 mi North 12.7 mph - N/A   Overcast
12:48 PM 55.4 °F 53.6 °F 94% 30.00 in 10.0 mi North 12.7 mph - 0.00 in Rain Light Rain
12:53 PM 55.0 °F 52.0 °F 89% 30.01 in 10.0 mi North 15.0 mph - 0.00 in   Overcast
2:53 PM 57.2 °F 53.6 °F 88% 29.97 in 10.0 mi North 18.4 mph - N/A   Overcast
3:53 PM 57.9 °F 54.0 °F 87% 29.98 in 10.0 mi North 15.0 mph 21.9 mph N/A   Overcast
4:53 PM 57.9 °F 55.0 °F 90% 29.98 in 10.0 mi NNE 12.7 mph - N/A   Overcast
5:21 PM 59.0 °F 54.0 °F 83% 29.97 in 10.0 mi NNE 13.8 mph - N/A   Overcast
5:53 PM 59.0 °F 54.0 °F 83% 29.97 in 10.0 mi NNE 12.7 mph - N/A   Overcast
6:08 PM 59.0 °F 54.0 °F 83% 29.97 in 10.0 mi NE 12.7 mph - N/A   Overcast
6:53 PM 59.0 °F 54.0 °F 83% 29.98 in 10.0 mi NNE 11.5 mph - N/A   Overcast
7:17 PM 59.0 °F 54.0 °F 83% 29.97 in 10.0 mi NNE 12.7 mph - N/A   Overcast
7:24 PM 57.9 °F 54.0 °F 87% 29.97 in 10.0 mi NNE 10.4 mph - N/A   Overcast
7:31 PM 57.9 °F 54.0 °F 87% 29.98 in 10.0 mi NNE 10.4 mph - N/A   Overcast
7:43 PM 57.9 °F 54.0 °F 87% 29.98 in 10.0 mi NE 6.9 mph - N/A   Overcast
7:53 PM 57.9 °F 54.0 °F 87% 29.99 in 10.0 mi NNE 10.4 mph - N/A   Overcast
8:00 PM 57.9 °F 55.0 °F 90% 29.98 in 10.0 mi NNE 9.2 mph - N/A   Overcast
8:12 PM 57.9 °F 54.0 °F 87% 29.98 in 10.0 mi NNE 8.1 mph - N/A   Overcast
8:50 PM 57.2 °F 55.4 °F 94% 29.98 in 10.0 mi North 9.2 mph - N/A   Overcast
8:53 PM 57.9 °F 54.0 °F 87% 29.99 in 10.0 mi NNE 8.1 mph - N/A   Overcast
9:23 PM 57.9 °F 55.0 °F 90% 29.99 in 10.0 mi NNE 8.1 mph - N/A   Overcast
9:53 PM 57.9 °F 55.0 °F 90% 29.99 in 10.0 mi NE 6.9 mph - N/A   Overcast
10:13 PM 57.9 °F 55.0 °F 90% 29.99 in 10.0 mi NNE 5.8 mph - N/A   Overcast
10:25 PM 57.9 °F 55.0 °F 90% 30.00 in 10.0 mi NE 4.6 mph - N/A   Overcast
10:48 PM 57.2 °F 55.4 °F 94% 30.00 in 10.0 mi NE 5.8 mph - N/A   Overcast
10:53 PM 57.0 °F 55.0 °F 93% 30.00 in 10.0 mi NE 4.6 mph - N/A   Overcast
11:53 PM 57.0 °F 55.9 °F 96% 29.99 in 8.0 mi Calm Calm - N/A   Overcast